Year,Month,Day,Hour,Minute,Value (Times are PST for temperature in C)
2012,04,09,00,00,9.90
2012,04,09,00,01,9.90
2012,04,09,00,02,10.00
2012,04,09,00,03,10.00
2012,04,09,00,04,10.10
2012,04,09,00,05,10.10
2012,04,09,00,06,10.10
2012,04,09,00,07,10.20
2012,04,09,00,08,10.20
2012,04,09,00,09,10.20
2012,04,09,00,10,10.20
2012,04,09,00,11,10.30
2012,04,09,00,12,10.30
2012,04,09,00,13,10.30
2012,04,09,00,14,10.30
2012,04,09,00,15,10.40
2012,04,09,00,16,10.40
2012,04,09,00,17,10.40
2012,04,09,00,18,10.40
2012,04,09,00,19,10.40
2012,04,09,00,20,10.40
2012,04,09,00,21,10.40
2012,04,09,00,22,10.40
2012,04,09,00,23,10.40
2012,04,09,00,24,10.40
2012,04,09,00,25,10.40
2012,04,09,00,26,10.40
2012,04,09,00,27,10.30
2012,04,09,00,28,10.30
2012,04,09,00,29,10.30
2012,04,09,00,30,10.20
2012,04,09,00,31,10.20
2012,04,09,00,32,10.20
2012,04,09,00,33,10.20
2012,04,09,00,34,10.20
2012,04,09,00,35,10.10
2012,04,09,00,36,10.10
2012,04,09,00,37,10.10
2012,04,09,00,38,10.10
2012,04,09,00,39,10.10
2012,04,09,00,40,10.10
2012,04,09,00,41,10.10
2012,04,09,00,42,10.10
2012,04,09,00,43,10.10
2012,04,09,00,44,10.10
2012,04,09,00,45,10.10
2012,04,09,00,46,10.10
2012,04,09,00,47,10.10
2012,04,09,00,48,10.00
2012,04,09,00,49,10.00
2012,04,09,00,50,10.00
2012,04,09,00,51,9.90
2012,04,09,00,52,9.90
2012,04,09,00,53,9.90
2012,04,09,00,54,9.90
2012,04,09,00,55,9.80
2012,04,09,00,56,9.80
2012,04,09,00,57,9.80
2012,04,09,00,58,9.80
2012,04,09,00,59,9.70
2012,04,09,01,00,9.70
2012,04,09,01,01,9.70
2012,04,09,01,02,9.60
2012,04,09,01,03,9.60
2012,04,09,01,04,9.60
2012,04,09,01,05,9.60
2012,04,09,01,06,9.60
2012,04,09,01,07,9.60
2012,04,09,01,08,9.60
2012,04,09,01,09,9.60
2012,04,09,01,10,9.60
2012,04,09,01,11,9.60
2012,04,09,01,12,9.70
2012,04,09,01,13,9.70
2012,04,09,01,14,9.70
2012,04,09,01,15,9.80
2012,04,09,01,16,9.80
2012,04,09,01,17,9.80
2012,04,09,01,18,9.80
2012,04,09,01,19,9.80
2012,04,09,01,20,9.80
2012,04,09,01,21,9.80
2012,04,09,01,22,9.90
2012,04,09,01,23,9.90
2012,04,09,01,24,9.90
2012,04,09,01,25,9.90
2012,04,09,01,26,9.90
2012,04,09,01,27,10.00
2012,04,09,01,28,10.00
2012,04,09,01,29,10.00
2012,04,09,01,30,10.00
2012,04,09,01,31,10.00
2012,04,09,01,32,10.00
2012,04,09,01,33,10.00
2012,04,09,01,34,10.00
2012,04,09,01,35,10.00
2012,04,09,01,36,10.00
2012,04,09,01,37,10.00
2012,04,09,01,38,10.00
2012,04,09,01,39,10.00
2012,04,09,01,40,10.00
2012,04,09,01,41,10.00
2012,04,09,01,42,9.90
2012,04,09,01,43,10.00
2012,04,09,01,44,9.90
2012,04,09,01,45,9.90
2012,04,09,01,46,9.90
2012,04,09,01,47,9.90
2012,04,09,01,48,9.90
2012,04,09,01,49,9.90
2012,04,09,01,50,9.90
2012,04,09,01,51,9.80
2012,04,09,01,52,9.80
2012,04,09,01,53,9.80
2012,04,09,01,54,9.80
2012,04,09,01,55,9.80
2012,04,09,01,56,9.80
2012,04,09,01,57,9.70
2012,04,09,01,58,9.70
2012,04,09,01,59,9.70
2012,04,09,02,00,9.70
2012,04,09,02,01,9.70
2012,04,09,02,02,9.60
2012,04,09,02,03,9.60
2012,04,09,02,04,9.60
2012,04,09,02,05,9.60
2012,04,09,02,06,9.60
2012,04,09,02,07,9.50
2012,04,09,02,08,9.50
2012,04,09,02,09,9.40
2012,04,09,02,10,9.40
2012,04,09,02,11,9.40
2012,04,09,02,12,9.40
2012,04,09,02,13,9.40
2012,04,09,02,14,9.30
2012,04,09,02,15,9.30
2012,04,09,02,16,9.30
2012,04,09,02,17,9.30
2012,04,09,02,18,9.30
2012,04,09,02,19,9.30
2012,04,09,02,20,9.20
2012,04,09,02,21,9.20
2012,04,09,02,22,9.20
2012,04,09,02,23,9.20
2012,04,09,02,24,9.20
2012,04,09,02,25,9.20
2012,04,09,02,26,9.20
2012,04,09,02,27,9.10
2012,04,09,02,28,9.10
2012,04,09,02,29,9.10
2012,04,09,02,30,9.10
2012,04,09,02,31,9.10
2012,04,09,02,32,9.10
2012,04,09,02,33,9.10
2012,04,09,02,34,9.10
2012,04,09,02,35,9.10
2012,04,09,02,36,9.00
2012,04,09,02,37,9.00
2012,04,09,02,38,9.00
2012,04,09,02,39,9.00
2012,04,09,02,40,9.00
2012,04,09,02,41,9.00
2012,04,09,02,42,8.90
2012,04,09,02,43,8.90
2012,04,09,02,44,8.90
2012,04,09,02,45,8.90
2012,04,09,02,46,8.90
2012,04,09,02,47,8.90
2012,04,09,02,48,9.00
2012,04,09,02,49,9.00
2012,04,09,02,50,9.00
2012,04,09,02,51,9.00
2012,04,09,02,52,9.00
2012,04,09,02,53,9.00
2012,04,09,02,54,9.00
2012,04,09,02,55,8.90
2012,04,09,02,56,9.00
2012,04,09,02,57,9.00
2012,04,09,02,58,8.90
2012,04,09,02,59,8.90
2012,04,09,03,00,8.90
2012,04,09,03,01,8.90
2012,04,09,03,02,8.90
2012,04,09,03,06,8.90
2012,04,09,03,07,8.90
2012,04,09,03,08,8.80
2012,04,09,03,09,8.80
2012,04,09,03,10,8.80
2012,04,09,03,11,8.80
2012,04,09,03,12,8.80
2012,04,09,03,13,8.70
2012,04,09,03,14,8.70
2012,04,09,03,15,8.70
2012,04,09,03,16,8.70
2012,04,09,03,17,8.70
2012,04,09,03,18,8.70
2012,04,09,03,19,8.70
2012,04,09,03,20,8.70
2012,04,09,03,21,8.70
2012,04,09,03,22,8.80
2012,04,09,03,23,8.80
2012,04,09,03,24,8.80
2012,04,09,03,25,8.80
2012,04,09,03,26,8.90
2012,04,09,03,27,8.90
2012,04,09,03,28,8.90
2012,04,09,03,29,8.90
2012,04,09,03,30,8.90
2012,04,09,03,31,8.90
2012,04,09,03,32,8.90
2012,04,09,03,33,9.00
2012,04,09,03,34,9.00
2012,04,09,03,35,9.00
2012,04,09,03,36,9.00
2012,04,09,03,37,9.00
2012,04,09,03,38,9.00
2012,04,09,03,39,8.90
2012,04,09,03,40,8.90
2012,04,09,03,41,8.90
2012,04,09,03,42,8.80
2012,04,09,03,43,8.80
2012,04,09,03,44,8.80
2012,04,09,03,45,8.80
2012,04,09,03,46,8.70
2012,04,09,03,47,8.70
2012,04,09,03,48,8.70
2012,04,09,03,49,8.70
2012,04,09,03,50,8.70
2012,04,09,03,51,8.60
2012,04,09,03,52,8.60
2012,04,09,03,53,8.60
2012,04,09,03,54,8.60
2012,04,09,03,55,8.50
2012,04,09,03,56,8.50
2012,04,09,03,57,8.50
2012,04,09,03,58,8.40
2012,04,09,03,59,8.40
2012,04,09,04,00,8.40
2012,04,09,04,01,8.30
2012,04,09,04,02,8.30
2012,04,09,04,03,8.20
2012,04,09,04,04,8.20
2012,04,09,04,05,8.20
2012,04,09,04,06,8.10
2012,04,09,04,07,8.10
2012,04,09,04,08,8.10
2012,04,09,04,09,8.10
2012,04,09,04,10,8.10
2012,04,09,04,11,8.00
2012,04,09,04,12,8.00
2012,04,09,04,13,8.00
2012,04,09,04,14,8.00
2012,04,09,04,15,8.00
2012,04,09,04,16,8.00
2012,04,09,04,17,8.00
2012,04,09,04,18,8.00
2012,04,09,04,19,8.00
2012,04,09,04,20,8.00
2012,04,09,04,21,8.00
2012,04,09,04,22,8.10
2012,04,09,04,23,8.10
2012,04,09,04,24,8.10
2012,04,09,04,25,8.10
2012,04,09,04,26,8.10
2012,04,09,04,27,8.10
2012,04,09,04,28,8.10
2012,04,09,04,29,8.10
2012,04,09,04,30,8.10
2012,04,09,04,31,8.10
2012,04,09,04,32,8.00
2012,04,09,04,33,8.00
2012,04,09,04,34,8.00
2012,04,09,04,35,8.00
2012,04,09,04,36,8.00
2012,04,09,04,37,8.00
2012,04,09,04,38,8.00
2012,04,09,04,39,8.00
2012,04,09,04,40,8.00
2012,04,09,04,41,7.90
2012,04,09,04,42,7.90
2012,04,09,04,43,7.90
2012,04,09,04,44,7.90
2012,04,09,04,45,7.90
2012,04,09,04,46,7.90
2012,04,09,04,47,7.90
2012,04,09,04,48,7.90
2012,04,09,04,49,7.90
2012,04,09,04,50,7.90
2012,04,09,04,51,7.90
2012,04,09,04,52,7.80
2012,04,09,04,53,7.80
2012,04,09,04,54,7.80
2012,04,09,04,55,7.80
2012,04,09,04,56,7.80
2012,04,09,04,57,7.80
2012,04,09,04,58,7.80
2012,04,09,04,59,7.80
2012,04,09,05,00,7.80
2012,04,09,05,01,7.80
2012,04,09,05,02,7.80
2012,04,09,05,03,7.80
2012,04,09,05,04,7.80
2012,04,09,05,05,7.80
2012,04,09,05,06,7.80
2012,04,09,05,07,7.80
2012,04,09,05,08,7.80
2012,04,09,05,09,7.70
2012,04,09,05,10,7.70
2012,04,09,05,11,7.70
2012,04,09,05,12,7.70
2012,04,09,05,13,7.70
2012,04,09,05,14,7.70
2012,04,09,05,15,7.70
2012,04,09,05,16,7.70
2012,04,09,05,17,7.70
2012,04,09,05,18,7.60
2012,04,09,05,19,7.60
2012,04,09,05,20,7.60
2012,04,09,05,21,7.60
2012,04,09,05,22,7.60
2012,04,09,05,23,7.60
2012,04,09,05,24,7.60
2012,04,09,05,25,7.60
2012,04,09,05,26,7.60
2012,04,09,05,27,7.60
2012,04,09,05,28,7.60
2012,04,09,05,29,7.60
2012,04,09,05,30,7.60
2012,04,09,05,31,7.60
2012,04,09,05,32,7.60
2012,04,09,05,33,7.60
2012,04,09,05,34,7.60
2012,04,09,05,35,7.60
2012,04,09,05,36,7.60
2012,04,09,05,37,7.60
2012,04,09,05,38,7.60
2012,04,09,05,39,7.60
2012,04,09,05,40,7.60
2012,04,09,05,41,7.50
2012,04,09,05,42,7.50
2012,04,09,05,43,7.50
2012,04,09,05,44,7.50
2012,04,09,05,45,7.50
2012,04,09,05,46,7.50
2012,04,09,05,47,7.50
2012,04,09,05,48,7.50
2012,04,09,05,49,7.50
2012,04,09,05,50,7.50
2012,04,09,05,51,7.50
2012,04,09,05,52,7.50
2012,04,09,05,53,7.50
2012,04,09,05,54,7.50
2012,04,09,05,55,7.50
2012,04,09,05,56,7.60
2012,04,09,05,57,7.60
2012,04,09,05,58,7.60
2012,04,09,05,59,7.60
2012,04,09,06,00,7.50
2012,04,09,06,01,7.50
2012,04,09,06,02,7.60
2012,04,09,06,03,7.60
2012,04,09,06,04,7.60
2012,04,09,06,05,7.60
2012,04,09,06,06,7.60
2012,04,09,06,07,7.60
2012,04,09,06,08,7.60
2012,04,09,06,09,7.70
2012,04,09,06,10,7.70
2012,04,09,06,11,7.70
2012,04,09,06,12,7.70
2012,04,09,06,13,7.70
2012,04,09,06,14,7.70
2012,04,09,06,15,7.70
2012,04,09,06,16,7.70
2012,04,09,06,17,7.70
2012,04,09,06,18,7.70
2012,04,09,06,19,7.70
2012,04,09,06,20,7.80
2012,04,09,06,21,7.80
2012,04,09,06,22,7.80
2012,04,09,06,23,7.70
2012,04,09,06,24,7.70
2012,04,09,06,25,7.70
2012,04,09,06,26,7.70
2012,04,09,06,27,7.70
2012,04,09,06,28,7.70
2012,04,09,06,29,7.70
2012,04,09,06,30,7.70
2012,04,09,06,31,7.70
2012,04,09,06,32,7.60
2012,04,09,06,33,7.60
2012,04,09,06,34,7.60
2012,04,09,06,35,7.60
2012,04,09,06,36,7.60
2012,04,09,06,37,7.60
2012,04,09,06,38,7.60
2012,04,09,06,39,7.60
2012,04,09,06,40,7.60
2012,04,09,06,41,7.60
2012,04,09,06,42,7.60
2012,04,09,06,43,7.60
2012,04,09,06,44,7.60
2012,04,09,06,45,7.60
2012,04,09,06,46,7.60
2012,04,09,06,47,7.60
2012,04,09,06,48,7.60
2012,04,09,06,49,7.60
2012,04,09,06,50,7.60
2012,04,09,06,51,7.60
2012,04,09,06,52,7.70
2012,04,09,06,53,7.70
2012,04,09,06,54,7.70
2012,04,09,06,55,7.70
2012,04,09,06,56,7.70
2012,04,09,06,57,7.70
2012,04,09,06,58,7.70
2012,04,09,06,59,7.70
2012,04,09,07,00,7.70
2012,04,09,07,01,7.70
2012,04,09,07,02,7.70
2012,04,09,07,03,7.70
2012,04,09,07,04,7.80
2012,04,09,07,05,7.80
2012,04,09,07,06,7.80
2012,04,09,07,07,7.80
2012,04,09,07,08,7.90
2012,04,09,07,09,7.90
2012,04,09,07,10,7.90
2012,04,09,07,11,7.90
2012,04,09,07,12,7.90
2012,04,09,07,13,7.90
2012,04,09,07,14,8.00
2012,04,09,07,15,8.00
2012,04,09,07,16,8.00
2012,04,09,07,17,8.10
2012,04,09,07,18,8.10
2012,04,09,07,19,8.10
2012,04,09,07,20,8.10
2012,04,09,07,21,8.20
2012,04,09,07,22,8.20
2012,04,09,07,23,8.20
2012,04,09,07,24,8.20
2012,04,09,07,25,8.30
2012,04,09,07,26,8.30
2012,04,09,07,27,8.30
2012,04,09,07,28,8.40
2012,04,09,07,29,8.40
2012,04,09,07,30,8.50
2012,04,09,07,31,8.50
2012,04,09,07,32,8.50
2012,04,09,07,33,8.50
2012,04,09,07,34,8.60
2012,04,09,07,35,8.60
2012,04,09,07,36,8.60
2012,04,09,07,37,8.70
2012,04,09,07,38,8.70
2012,04,09,07,39,8.70
2012,04,09,07,40,8.70
2012,04,09,07,41,8.70
2012,04,09,07,42,8.70
2012,04,09,07,43,8.70
2012,04,09,07,44,8.80
2012,04,09,07,45,8.80
2012,04,09,07,46,8.80
2012,04,09,07,47,8.80
2012,04,09,07,48,8.80
2012,04,09,07,49,8.90
2012,04,09,07,50,8.90
2012,04,09,07,51,8.90
2012,04,09,07,52,8.90
2012,04,09,07,53,8.90
2012,04,09,07,54,9.00
2012,04,09,07,55,9.00
2012,04,09,07,56,9.10
2012,04,09,07,57,9.10
2012,04,09,07,58,9.10
2012,04,09,07,59,9.20
2012,04,09,08,00,9.20
2012,04,09,08,01,9.30
2012,04,09,08,02,9.30
2012,04,09,08,03,9.30
2012,04,09,08,04,9.40
2012,04,09,08,05,9.40
2012,04,09,08,06,9.50
2012,04,09,08,07,9.50
2012,04,09,08,08,9.50
2012,04,09,08,09,9.60
2012,04,09,08,10,9.60
2012,04,09,08,11,9.60
2012,04,09,08,12,9.70
2012,04,09,08,13,9.70
2012,04,09,08,14,9.70
2012,04,09,08,15,9.70
2012,04,09,08,16,9.70
2012,04,09,08,17,9.70
2012,04,09,08,18,9.70
2012,04,09,08,19,9.70
2012,04,09,08,20,9.70
2012,04,09,08,21,9.70
2012,04,09,08,22,9.70
2012,04,09,08,23,9.70
2012,04,09,08,24,9.70
2012,04,09,08,25,9.70
2012,04,09,08,26,9.70
2012,04,09,08,27,9.70
2012,04,09,08,28,9.70
2012,04,09,08,29,9.70
2012,04,09,08,30,9.70
2012,04,09,08,31,9.70
2012,04,09,08,32,9.70
2012,04,09,08,33,9.80
2012,04,09,08,34,9.80
2012,04,09,08,35,9.80
2012,04,09,08,36,9.80
2012,04,09,08,37,9.90
2012,04,09,08,38,10.00
2012,04,09,08,39,10.10
2012,04,09,08,40,10.10
2012,04,09,08,41,10.20
2012,04,09,08,42,10.30
2012,04,09,08,43,10.40
2012,04,09,08,44,10.40
2012,04,09,08,45,10.50
2012,04,09,08,46,10.50
2012,04,09,08,47,10.60
2012,04,09,08,48,10.70
2012,04,09,08,49,10.70
2012,04,09,08,50,10.70
2012,04,09,08,51,10.80
2012,04,09,08,52,10.80
2012,04,09,08,53,10.90
2012,04,09,08,54,10.90
2012,04,09,08,55,11.00
2012,04,09,08,56,11.00
2012,04,09,08,57,11.10
2012,04,09,08,58,11.10
2012,04,09,08,59,11.10
2012,04,09,09,00,11.10
2012,04,09,09,01,11.10
2012,04,09,09,02,11.20
2012,04,09,09,03,11.20
2012,04,09,09,04,11.20
2012,04,09,09,05,11.20
2012,04,09,09,06,11.20
2012,04,09,09,07,11.20
2012,04,09,09,08,11.20
2012,04,09,09,09,11.30
2012,04,09,09,10,11.30
2012,04,09,09,11,11.30
2012,04,09,09,12,11.30
2012,04,09,09,13,11.30
2012,04,09,09,14,11.30
2012,04,09,09,15,11.40
2012,04,09,09,16,11.40
2012,04,09,09,17,11.40
2012,04,09,09,18,11.40
2012,04,09,09,19,11.30
2012,04,09,09,20,11.30
2012,04,09,09,21,11.40
2012,04,09,09,22,11.40
2012,04,09,09,23,11.40
2012,04,09,09,24,11.40
2012,04,09,09,25,11.40
2012,04,09,09,26,11.40
2012,04,09,09,27,11.40
2012,04,09,09,28,11.40
2012,04,09,09,29,11.40
2012,04,09,09,30,11.40
2012,04,09,09,31,11.40
2012,04,09,09,32,11.50
2012,04,09,09,33,11.50
2012,04,09,09,34,11.50
2012,04,09,09,35,11.50
2012,04,09,09,36,11.50
2012,04,09,09,37,11.50
2012,04,09,09,38,11.60
2012,04,09,09,39,11.60
2012,04,09,09,40,11.60
2012,04,09,09,41,11.70
2012,04,09,09,42,11.70
2012,04,09,09,43,11.70
2012,04,09,09,44,11.80
2012,04,09,09,45,11.80
2012,04,09,09,46,11.90
2012,04,09,09,47,12.00
2012,04,09,09,48,12.00
2012,04,09,09,49,12.00
2012,04,09,09,50,11.90
2012,04,09,09,51,11.90
2012,04,09,09,52,11.90
2012,04,09,09,53,11.80
2012,04,09,09,54,11.80
2012,04,09,09,55,11.70
2012,04,09,09,56,11.70
2012,04,09,09,57,11.70
2012,04,09,09,58,11.70
2012,04,09,09,59,11.70
2012,04,09,10,00,11.80
2012,04,09,10,01,11.80
2012,04,09,10,02,11.80
2012,04,09,10,03,11.80
2012,04,09,10,04,11.80
2012,04,09,10,05,11.80
2012,04,09,10,06,11.90
2012,04,09,10,07,11.90
2012,04,09,10,08,11.90
2012,04,09,10,09,11.90
2012,04,09,10,10,11.90
2012,04,09,10,11,11.90
2012,04,09,10,12,12.00
2012,04,09,10,13,12.00
2012,04,09,10,14,12.10
2012,04,09,10,15,12.10
2012,04,09,10,16,12.20
2012,04,09,10,17,12.30
2012,04,09,10,18,12.30
2012,04,09,10,19,12.30
2012,04,09,10,20,12.30
2012,04,09,10,21,12.30
2012,04,09,10,22,12.30
2012,04,09,10,23,12.30
2012,04,09,10,24,12.30
2012,04,09,10,25,12.30
2012,04,09,10,26,12.20
2012,04,09,10,27,12.20
2012,04,09,10,28,12.10
2012,04,09,10,29,12.10
2012,04,09,10,30,12.10
2012,04,09,10,31,12.10
2012,04,09,10,32,12.00
2012,04,09,10,33,12.00
2012,04,09,10,34,12.10
2012,04,09,10,35,12.10
2012,04,09,10,36,12.20
2012,04,09,10,37,12.20
2012,04,09,10,38,12.30
2012,04,09,10,39,12.40
2012,04,09,10,40,12.40
2012,04,09,10,41,12.50
2012,04,09,10,42,12.60
2012,04,09,10,43,12.60
2012,04,09,10,44,12.60
2012,04,09,10,45,12.50
2012,04,09,10,46,12.50
2012,04,09,10,47,12.50
2012,04,09,10,48,12.50
2012,04,09,10,49,12.40
2012,04,09,10,50,12.40
2012,04,09,10,51,12.40
2012,04,09,10,52,12.40
2012,04,09,10,53,12.40
2012,04,09,10,54,12.40
2012,04,09,10,55,12.40
2012,04,09,10,56,12.50
2012,04,09,10,57,12.60
2012,04,09,10,58,12.60
2012,04,09,10,59,12.60
2012,04,09,11,00,12.70
2012,04,09,11,01,12.70
2012,04,09,11,02,12.70
2012,04,09,11,03,12.70
2012,04,09,11,04,12.70
2012,04,09,11,05,12.70
2012,04,09,11,06,12.70
2012,04,09,11,07,12.70
2012,04,09,11,08,12.80
2012,04,09,11,09,12.80
2012,04,09,11,10,12.80
2012,04,09,11,11,12.80
2012,04,09,11,12,12.80
2012,04,09,11,13,12.80
2012,04,09,11,14,12.90
2012,04,09,11,15,12.90
2012,04,09,11,16,12.80
2012,04,09,11,17,12.70
2012,04,09,11,18,12.70
2012,04,09,11,19,12.60
2012,04,09,11,20,12.60
2012,04,09,11,21,12.50
2012,04,09,11,22,12.40
2012,04,09,11,23,12.40
2012,04,09,11,24,12.40
2012,04,09,11,25,12.40
2012,04,09,11,26,12.40
2012,04,09,11,27,12.40
2012,04,09,11,28,12.40
2012,04,09,11,29,12.40
2012,04,09,11,30,12.30
2012,04,09,11,31,12.30
2012,04,09,11,32,12.30
2012,04,09,11,33,12.20
2012,04,09,11,34,12.20
2012,04,09,11,35,12.20
2012,04,09,11,36,12.20
2012,04,09,11,37,12.20
2012,04,09,11,38,12.20
2012,04,09,11,39,12.20
2012,04,09,11,40,12.30
2012,04,09,11,41,12.30
2012,04,09,11,42,12.30
2012,04,09,11,43,12.40
2012,04,09,11,44,12.40
2012,04,09,11,45,12.40
2012,04,09,11,46,12.40
2012,04,09,11,47,12.30
2012,04,09,11,48,12.40
2012,04,09,11,49,12.40
2012,04,09,11,50,12.40
2012,04,09,11,51,12.50
2012,04,09,11,52,12.60
2012,04,09,11,53,12.60
2012,04,09,11,54,12.60
2012,04,09,11,55,12.70
2012,04,09,11,56,12.70
2012,04,09,11,57,12.70
2012,04,09,11,58,12.70
2012,04,09,11,59,12.70
2012,04,09,12,00,12.70
2012,04,09,12,01,12.70
2012,04,09,12,02,12.80
2012,04,09,12,03,12.80
2012,04,09,12,04,12.70
2012,04,09,12,05,12.80
2012,04,09,12,06,12.80
2012,04,09,12,07,12.80
2012,04,09,12,08,12.90
2012,04,09,12,09,13.00
2012,04,09,12,10,13.10
2012,04,09,12,11,13.10
2012,04,09,12,12,13.10
2012,04,09,12,13,13.10
2012,04,09,12,14,13.10
2012,04,09,12,15,13.10
2012,04,09,12,16,13.20
2012,04,09,12,17,13.20
2012,04,09,12,18,13.30
2012,04,09,12,19,13.40
2012,04,09,12,20,13.50
2012,04,09,12,21,13.50
2012,04,09,12,22,13.60
2012,04,09,12,23,13.60
2012,04,09,12,24,13.60
2012,04,09,12,25,13.60
2012,04,09,12,26,13.60
2012,04,09,12,27,13.60
2012,04,09,12,28,13.60
2012,04,09,12,29,13.60
2012,04,09,12,30,13.60
2012,04,09,12,31,13.60
2012,04,09,12,32,13.60
2012,04,09,12,33,13.60
2012,04,09,12,34,13.60
2012,04,09,12,35,13.60
2012,04,09,12,36,13.60
2012,04,09,12,37,13.60
2012,04,09,12,38,13.60
2012,04,09,12,39,13.70
2012,04,09,12,40,13.70
2012,04,09,12,41,13.60
2012,04,09,12,42,13.70
2012,04,09,12,43,13.70
2012,04,09,12,44,13.70
2012,04,09,12,45,13.80
2012,04,09,12,46,13.80
2012,04,09,12,47,13.80
2012,04,09,12,48,13.80
2012,04,09,12,49,13.80
2012,04,09,12,50,13.80
2012,04,09,12,51,13.80
2012,04,09,12,52,13.80
2012,04,09,12,53,13.70
2012,04,09,12,54,13.70
2012,04,09,12,55,13.70
2012,04,09,12,56,13.60
2012,04,09,12,57,13.60
2012,04,09,12,58,13.50
2012,04,09,12,59,13.50
2012,04,09,13,00,13.50
2012,04,09,13,01,13.40
2012,04,09,13,02,13.40
2012,04,09,13,03,13.40
2012,04,09,13,04,13.40
2012,04,09,13,05,13.30
2012,04,09,13,06,13.30
2012,04,09,13,07,13.20
2012,04,09,13,08,13.20
2012,04,09,13,09,13.20
2012,04,09,13,10,13.20
2012,04,09,13,11,13.20
2012,04,09,13,12,13.20
2012,04,09,13,13,13.10
2012,04,09,13,14,13.10
2012,04,09,13,15,13.10
2012,04,09,13,16,13.20
2012,04,09,13,17,13.20
2012,04,09,13,18,13.20
2012,04,09,13,19,13.20
2012,04,09,13,20,13.20
2012,04,09,13,21,13.20
2012,04,09,13,22,13.20
2012,04,09,13,23,13.10
2012,04,09,13,24,13.10
2012,04,09,13,25,13.10
2012,04,09,13,26,13.10
2012,04,09,13,27,13.10
2012,04,09,13,28,13.10
2012,04,09,13,29,13.10
2012,04,09,13,30,13.10
2012,04,09,13,31,13.10
2012,04,09,13,32,13.10
2012,04,09,13,33,13.20
2012,04,09,13,34,13.20
2012,04,09,13,35,13.30
2012,04,09,13,36,13.30
2012,04,09,13,37,13.30
2012,04,09,13,38,13.30
2012,04,09,13,39,13.30
2012,04,09,13,40,13.40
2012,04,09,13,41,13.40
2012,04,09,13,42,13.40
2012,04,09,13,43,13.40
2012,04,09,13,44,13.50
2012,04,09,13,45,13.50
2012,04,09,13,46,13.60
2012,04,09,13,47,13.60
2012,04,09,13,48,13.60
2012,04,09,13,49,13.60
2012,04,09,13,50,13.50
2012,04,09,13,51,13.60
2012,04,09,13,52,13.60
2012,04,09,13,53,13.60
2012,04,09,13,54,13.60
2012,04,09,13,55,13.60
2012,04,09,13,56,13.60
2012,04,09,13,57,13.60
2012,04,09,13,58,13.60
2012,04,09,13,59,13.60
2012,04,09,14,00,13.60
2012,04,09,14,01,13.60
2012,04,09,14,02,13.70
2012,04,09,14,03,13.70
2012,04,09,14,04,13.70
2012,04,09,14,05,13.70
2012,04,09,14,06,13.70
2012,04,09,14,07,13.70
2012,04,09,14,08,13.60
2012,04,09,14,09,13.60
2012,04,09,14,10,13.60
2012,04,09,14,11,13.60
2012,04,09,14,12,13.60
2012,04,09,14,13,13.60
2012,04,09,14,14,13.60
2012,04,09,14,15,13.60
2012,04,09,14,16,13.70
2012,04,09,14,17,13.70
2012,04,09,14,18,13.70
2012,04,09,14,19,13.70
2012,04,09,14,20,13.70
2012,04,09,14,21,13.70
2012,04,09,14,22,13.70
2012,04,09,14,23,13.70
2012,04,09,14,24,13.70
2012,04,09,14,25,13.70
2012,04,09,14,26,13.70
2012,04,09,14,27,13.60
2012,04,09,14,28,13.60
2012,04,09,14,29,13.50
2012,04,09,14,30,13.50
2012,04,09,14,31,13.40
2012,04,09,14,32,13.40
2012,04,09,14,33,13.30
2012,04,09,14,34,13.20
2012,04,09,14,35,13.20
2012,04,09,14,36,13.10
2012,04,09,14,37,13.00
2012,04,09,14,38,12.90
2012,04,09,14,39,12.80
2012,04,09,14,40,12.70
2012,04,09,14,41,12.60
2012,04,09,14,42,12.50
2012,04,09,14,43,12.40
2012,04,09,14,44,12.40
2012,04,09,14,45,12.40
2012,04,09,14,46,12.40
2012,04,09,14,47,12.40
2012,04,09,14,48,12.40
2012,04,09,14,49,12.50
2012,04,09,14,50,12.50
2012,04,09,14,51,12.60
2012,04,09,14,52,12.60
2012,04,09,14,53,12.70
2012,04,09,14,54,12.70
2012,04,09,14,55,12.80
2012,04,09,14,56,12.80
2012,04,09,14,57,12.90
2012,04,09,14,58,12.90
2012,04,09,14,59,13.00
2012,04,09,15,00,13.10
2012,04,09,15,01,13.10
2012,04,09,15,02,13.10
2012,04,09,15,03,13.20
2012,04,09,15,04,13.20
2012,04,09,15,05,13.30
2012,04,09,15,06,13.30
2012,04,09,15,07,13.30
2012,04,09,15,08,13.40
2012,04,09,15,09,13.40
2012,04,09,15,10,13.40
2012,04,09,15,11,13.40
2012,04,09,15,12,13.50
2012,04,09,15,13,13.50
2012,04,09,15,14,13.50
2012,04,09,15,15,13.50
2012,04,09,15,16,13.50
2012,04,09,15,17,13.50
2012,04,09,15,18,13.60
2012,04,09,15,19,13.60
2012,04,09,15,20,13.60
2012,04,09,15,21,13.70
2012,04,09,15,22,13.60
2012,04,09,15,23,13.60
2012,04,09,15,24,13.60
2012,04,09,15,25,13.70
2012,04,09,15,26,13.70
2012,04,09,15,27,13.70
2012,04,09,15,28,13.70
2012,04,09,15,29,13.70
2012,04,09,15,30,13.70
2012,04,09,15,31,13.70
2012,04,09,15,32,13.80
2012,04,09,15,33,13.80
2012,04,09,15,34,13.80
2012,04,09,15,35,13.90
2012,04,09,15,36,13.90
2012,04,09,15,37,14.00
2012,04,09,15,38,14.10
2012,04,09,15,39,14.10
2012,04,09,15,40,14.20
2012,04,09,15,41,14.20
2012,04,09,15,42,14.20
2012,04,09,15,43,14.20
2012,04,09,15,44,14.20
2012,04,09,15,45,14.20
2012,04,09,15,46,14.20
2012,04,09,15,47,14.20
2012,04,09,15,48,14.20
2012,04,09,15,49,14.10
2012,04,09,15,50,14.10
2012,04,09,15,51,14.10
2012,04,09,15,52,14.00
2012,04,09,15,53,14.00
2012,04,09,15,54,14.00
2012,04,09,15,55,14.00
2012,04,09,15,56,14.00
2012,04,09,15,57,14.10
2012,04,09,15,58,14.10
2012,04,09,15,59,14.10
2012,04,09,16,00,14.10
2012,04,09,16,01,14.10
2012,04,09,16,02,14.10
2012,04,09,16,03,14.10
2012,04,09,16,04,14.10
2012,04,09,16,05,14.00
2012,04,09,16,06,14.00
2012,04,09,16,07,14.00
2012,04,09,16,08,14.00
2012,04,09,16,09,14.10
2012,04,09,16,10,14.10
2012,04,09,16,11,14.20
2012,04,09,16,12,14.20
2012,04,09,16,13,14.20
2012,04,09,16,14,14.20
2012,04,09,16,15,14.20
2012,04,09,16,16,14.20
2012,04,09,16,17,14.20
2012,04,09,16,18,14.20
2012,04,09,16,19,14.20
2012,04,09,16,20,14.10
2012,04,09,16,21,14.10
2012,04,09,16,22,14.10
2012,04,09,16,23,14.10
2012,04,09,16,24,14.10
2012,04,09,16,25,14.10
2012,04,09,16,26,14.10
2012,04,09,16,27,14.10
2012,04,09,16,28,14.10
2012,04,09,16,29,14.10
2012,04,09,16,30,14.10
2012,04,09,16,31,14.20
2012,04,09,16,32,14.20
2012,04,09,16,33,14.20
2012,04,09,16,34,14.20
2012,04,09,16,35,14.20
2012,04,09,16,36,14.20
2012,04,09,16,37,14.30
2012,04,09,16,38,14.30
2012,04,09,16,39,14.30
2012,04,09,16,40,14.40
2012,04,09,16,41,14.40
2012,04,09,16,42,14.40
2012,04,09,16,43,14.40
2012,04,09,16,44,14.50
2012,04,09,16,45,14.50
2012,04,09,16,46,14.60
2012,04,09,16,47,14.60
2012,04,09,16,48,14.60
2012,04,09,16,49,14.60
2012,04,09,16,50,14.60
2012,04,09,16,51,14.60
2012,04,09,16,52,14.60
2012,04,09,16,53,14.60
2012,04,09,16,54,14.60
2012,04,09,16,55,14.60
2012,04,09,16,56,14.70
2012,04,09,16,57,14.70
2012,04,09,16,58,14.70
2012,04,09,16,59,14.70
2012,04,09,17,00,14.70
2012,04,09,17,01,14.70
2012,04,09,17,02,14.60
2012,04,09,17,03,14.60
2012,04,09,17,04,14.60
2012,04,09,17,05,14.60
2012,04,09,17,06,14.50
2012,04,09,17,07,14.50
2012,04,09,17,08,14.50
2012,04,09,17,09,14.50
2012,04,09,17,10,14.50
2012,04,09,17,11,14.50
2012,04,09,17,12,14.40
2012,04,09,17,13,14.40
2012,04,09,17,14,14.40
2012,04,09,17,15,14.30
2012,04,09,17,16,14.30
2012,04,09,17,17,14.30
2012,04,09,17,18,14.30
2012,04,09,17,19,14.30
2012,04,09,17,20,14.20
2012,04,09,17,21,14.20
2012,04,09,17,22,14.20
2012,04,09,17,23,14.20
2012,04,09,17,24,14.20
2012,04,09,17,25,14.10
2012,04,09,17,26,14.10
2012,04,09,17,27,14.10
2012,04,09,17,28,14.10
2012,04,09,17,29,14.10
2012,04,09,17,30,14.10
2012,04,09,17,31,14.00
2012,04,09,17,32,14.00
2012,04,09,17,33,14.00
2012,04,09,17,34,13.90
2012,04,09,17,35,13.90
2012,04,09,17,36,13.90
2012,04,09,17,37,13.90
2012,04,09,17,38,13.90
2012,04,09,17,39,13.90
2012,04,09,17,40,13.90
2012,04,09,17,41,13.90
2012,04,09,17,42,13.90